Date,TemperatureHighF,TemperatureAvgF,TemperatureLowF,DewpointHighF,DewpointAvgF,DewpointLowF,HumidityHigh,HumidityAvg,HumidityLow,PressureMaxIn,PressureMinIn,WindSpeedMaxMPH,WindSpeedAvgMPH,GustSpeedMaxMPH,PrecipitationSumIn
2014-1-1,51.0,34.9,29.0,-99.9,-99.9,-99.9,0,0,100,0.00,40.00,0,-999,0,0.01
2014-1-2,52.0,38.4,33.0,-99.9,-99.9,-99.9,0,0,100,0.00,40.00,0,-999,0,0.00
2014-1-3,47.0,40.8,35.0,-99.9,-99.9,-99.9,0,0,100,0.00,40.00,0,-999,0,0.00
2014-1-4,40.0,35.0,31.0,-99.9,-99.9,-99.9,0,0,100,0.00,40.00,0,-999,0,0.01
2014-1-5,48.0,35.6,22.0,-99.9,-99.9,-99.9,0,0,100,0.00,40.00,0,-999,0,0.00
2014-1-6,45.0,36.6,30.0,-99.9,-99.9,-99.9,0,0,100,0.00,40.00,0,-999,0,0.00
2014-1-7,44.0,38.1,32.0,-99.9,-99.9,-99.9,0,0,100,0.00,40.00,0,-999,0,0.01
2014-1-10,49.0,40.0,35.0,-99.9,-99.9,-99.9,0,0,100,0.00,40.00,0,-999,0,0.00
2014-1-11,43.0,35.6,27.0,-99.9,-99.9,-99.9,0,0,100,0.00,40.00,0,-999,0,0.02
2014-1-12,38.0,25.4,18.0,-99.9,-99.9,-99.9,0,0,100,0.00,40.00,0,-999,0,0.00
2014-1-13,47.0,32.2,26.0,-99.9,-99.9,-99.9,0,0,100,0.00,40.00,0,-999,0,0.00
2014-1-14,51.0,36.9,29.0,-99.9,-99.9,-99.9,0,0,100,0.00,40.00,0,-999,0,0.00
2014-1-15,50.0,40.5,31.0,-99.9,-99.9,-99.9,0,0,100,0.00,40.00,0,-999,0,0.01
2014-1-16,49.0,35.3,29.0,-99.9,-99.9,-99.9,0,0,100,0.00,40.00,0,-999,0,0.00
2014-1-17,57.0,40.5,31.0,-99.9,-99.9,-99.9,0,0,100,0.00,40.00,0,-999,0,0.00
2014-1-18,55.0,38.6,31.0,-99.9,-99.9,-99.9,0,0,100,0.00,40.00,0,-999,0,0.01
2014-1-19,51.0,40.7,31.0,-99.9,-99.9,-99.9,0,0,100,0.00,40.00,0,-999,0,0.01
2014-1-20,51.0,37.6,28.0,-99.9,-99.9,-99.9,0,0,100,0.00,40.00,0,-999,0,0.01
2014-1-21,53.0,36.8,30.0,-99.9,-99.9,-99.9,0,0,100,0.00,40.00,0,-999,0,0.01
2014-1-22,53.0,38.7,30.0,-99.9,-99.9,-99.9,0,0,100,0.00,40.00,0,-999,0,0.00
2014-1-23,31.0,27.0,25.0,-99.9,-99.9,-99.9,0,0,100,0.00,40.00,0,-999,0,0.01
2014-1-24,41.0,27.2,21.0,-99.9,-99.9,-99.9,0,0,100,0.00,40.00,0,-999,0,0.01
2014-1-25,48.0,35.4,28.0,-99.9,-99.9,-99.9,0,0,100,0.00,40.00,0,-999,0,0.01
2014-1-26,45.0,35.2,29.0,-99.9,-99.9,-99.9,0,0,100,0.00,40.00,0,-999,0,0.00
2014-1-27,45.0,34.7,29.0,-99.9,-99.9,-99.9,0,0,100,0.00,40.00,0,-999,0,0.00
2014-1-28,41.0,40.3,40.0,-99.9,-99.9,-99.9,0,0,100,0.00,40.00,0,-999,0,0.00
2014-1-29,43.0,40.2,38.0,-99.9,-99.9,-99.9,0,0,100,0.00,40.00,0,-999,0,0.02
2014-1-30,35.0,28.6,23.0,-99.9,-99.9,-99.9,0,0,100,0.00,40.00,0,-999,0,0.07
2014-1-31,28.0,20.2,11.0,-99.9,-99.9,-99.9,0,0,100,0.00,40.00,0,-999,0,0.03
2014-2-1,32.0,18.2,8.0,-99.9,-99.9,-99.9,0,0,100,0.00,40.00,0,-999,0,0.01
2014-2-2,28.0,20.5,15.0,-99.9,-99.9,-99.9,0,0,100,0.00,40.00,0,-999,0,0.00
2014-2-3,31.0,20.5,11.0,-99.9,-99.9,-99.9,0,0,100,0.00,40.00,0,-999,0,0.01
2014-2-4,28.0,20.1,14.0,-99.9,-99.9,-99.9,0,0,100,0.00,40.00,0,-999,0,0.01
2014-2-5,29.0,21.3,15.0,-99.9,-99.9,-99.9,0,0,100,0.00,40.00,0,-999,0,0.00
2014-2-6,35.0,28.9,26.0,-99.9,-99.9,-99.9,0,0,100,0.00,40.00,0,-999,0,0.01
2014-2-7,29.0,27.7,26.0,-99.9,-99.9,-99.9,0,0,100,0.00,40.00,0,-999,0,0.01
2014-2-11,40.0,40.0,40.0,-99.9,-99.9,-99.9,0,0,100,0.00,40.00,0,-999,0,0.00
2014-2-12,45.0,40.2,36.0,-99.9,-99.9,-99.9,0,0,100,0.00,40.00,0,-999,0,0.00
2014-2-13,47.0,44.0,42.0,-99.9,-99.9,-99.9,0,0,100,0.00,40.00,0,-999,0,0.00
2014-2-14,49.0,45.5,43.0,-99.9,-99.9,-99.9,0,0,100,0.00,40.00,0,-999,0,0.00
2014-2-15,45.0,38.9,32.0,-99.9,-99.9,-99.9,0,0,100,0.00,40.00,0,-999,0,0.02
2014-2-16,42.0,33.9,28.0,-99.9,-99.9,-99.9,0,0,100,0.00,40.00,0,-999,0,0.03
2014-2-17,43.0,38.0,33.0,-99.9,-99.9,-99.9,0,0,100,0.00,40.00,0,-999,0,0.00
2014-2-18,46.0,43.0,40.0,-99.9,-99.9,-99.9,0,0,100,0.00,40.00,0,-999,0,0.00
2014-2-19,41.0,35.8,31.0,-99.9,-99.9,-99.9,0,0,100,0.00,40.00,0,-999,0,0.00
2014-2-20,47.0,34.3,26.0,-99.9,-99.9,-99.9,0,0,100,0.00,40.00,0,-999,0,0.01
2014-2-21,47.0,36.1,27.0,-99.9,-99.9,-99.9,0,0,100,0.00,40.00,0,-999,0,0.01
2014-2-22,51.0,37.9,26.0,-99.9,-99.9,-99.9,0,0,100,0.00,40.00,0,-999,0,0.00
2014-2-23,48.0,32.1,28.0,-99.9,-99.9,-99.9,0,0,100,0.00,40.00,0,-999,0,0.00
2014-2-24,52.0,35.6,30.0,-99.9,-99.9,-99.9,0,0,100,0.00,40.00,0,-999,0,0.00
2014-2-25,52.0,40.2,31.0,-99.9,-99.9,-99.9,0,0,100,0.00,40.00,0,-999,0,0.00
2014-2-26,39.0,36.5,34.0,-99.9,-99.9,-99.9,0,0,100,0.00,40.00,0,-999,0,0.00
2014-2-27,31.0,29.2,25.0,-99.9,-99.9,-99.9,0,0,100,0.00,40.00,0,-999,0,0.07
2014-2-28,35.0,30.8,29.0,-99.9,-99.9,-99.9,0,0,100,0.00,40.00,0,-999,0,0.05
2014-3-1,37.0,30.7,27.0,-99.9,-99.9,-99.9,0,0,100,0.00,40.00,0,-999,0,0.04
2014-3-2,36.0,32.3,29.0,-99.9,-99.9,-99.9,0,0,100,0.00,40.00,0,-999,0,0.01
2014-3-3,38.0,34.1,31.0,-99.9,-99.9,-99.9,0,0,100,0.00,40.00,0,-999,0,0.01
2014-3-4,46.0,37.5,32.0,-99.9,-99.9,-99.9,0,0,100,0.00,40.00,0,-999,0,0.01
2014-3-5,45.0,39.5,33.0,-99.9,-99.9,-99.9,0,0,100,0.00,40.00,0,-999,0,0.01
2014-3-6,39.0,33.6,27.0,-99.9,-99.9,-99.9,0,0,100,0.00,40.00,0,-999,0,0.04
2014-3-7,45.0,30.6,21.0,-99.9,-99.9,-99.9,0,0,100,0.00,40.00,0,-999,0,0.01
2014-3-8,56.0,43.1,24.0,-99.9,-99.9,-99.9,0,0,100,0.00,40.00,0,-999,0,0.01
2014-3-9,51.0,44.7,40.0,-99.9,-99.9,-99.9,0,0,100,0.00,40.00,0,-999,0,0.01
2014-3-10,43.0,35.7,27.0,-99.9,-99.9,-99.9,0,0,100,0.00,40.00,0,-999,0,0.02
2014-3-11,34.0,28.9,19.0,-99.9,-99.9,-99.9,0,0,100,0.00,40.00,0,-999,0,0.01
2014-3-12,42.0,31.0,23.0,-99.9,-99.9,-99.9,0,0,100,0.00,40.00,0,-999,0,0.01
2014-3-13,49.0,33.7,24.0,-99.9,-99.9,-99.9,0,0,100,0.00,40.00,0,-999,0,0.01
2014-3-14,50.0,42.0,33.0,-99.9,-99.9,-99.9,0,0,100,0.00,40.00,0,-999,0,0.00
2014-3-15,55.0,39.6,29.0,-99.9,-99.9,-99.9,0,0,100,0.00,40.00,0,-999,0,0.00
2014-3-16,56.0,45.9,34.0,-99.9,-99.9,-99.9,0,0,100,0.00,40.00,0,-999,0,0.01
2014-3-17,48.0,40.4,36.0,-99.9,-99.9,-99.9,0,0,100,0.00,40.00,0,-999,0,0.00
2014-3-18,42.0,29.8,19.0,-99.9,-99.9,-99.9,0,0,100,0.00,40.00,0,-999,0,0.01
2014-3-19,49.0,35.3,22.0,-99.9,-99.9,-99.9,0,0,100,0.00,40.00,0,-999,0,0.01
2014-3-20,50.0,39.3,31.0,-99.9,-99.9,-99.9,0,0,100,0.00,40.00,0,-999,0,0.01
2014-3-21,49.0,34.2,29.0,-99.9,-99.9,-99.9,0,0,100,0.00,40.00,0,-999,0,0.01
2014-3-22,49.0,35.5,25.0,-99.9,-99.9,-99.9,0,0,100,0.00,40.00,0,-999,0,0.01
2014-3-23,53.0,39.8,27.0,-99.9,-99.9,-99.9,0,0,100,0.00,40.00,0,-999,0,0.00
2014-3-26,31.0,28.6,27.0,-99.9,-99.9,-99.9,0,0,100,0.00,40.00,0,-999,0,0.02
2014-3-27,34.0,29.2,26.0,-99.9,-99.9,-99.9,0,0,100,0.00,40.00,0,-999,0,0.01
2014-3-28,36.0,32.0,28.0,-99.9,-99.9,-99.9,0,0,100,0.00,40.00,0,-999,0,0.00
2014-3-29,35.0,34.6,32.0,-99.9,-99.9,-99.9,0,0,100,0.00,40.00,0,-999,0,0.02
2014-3-30,33.0,26.2,20.0,-99.9,-99.9,-99.9,0,0,100,0.00,40.00,0,-999,0,0.03
2014-3-31,30.0,25.5,21.0,-99.9,-99.9,-99.9,0,0,100,0.00,40.00,0,-999,0,0.03
2014-4-1,28.0,24.8,23.0,-99.9,-99.9,-99.9,0,0,100,0.00,40.00,0,-999,0,0.02
2014-4-2,37.0,27.3,21.0,-99.9,-99.9,-99.9,0,0,100,0.00,40.00,0,-999,0,0.01
2014-4-3,40.0,30.4,18.0,-99.9,-99.9,-99.9,0,0,100,0.00,40.00,0,-999,0,0.01
2014-4-4,38.0,30.0,23.0,-99.9,-99.9,-99.9,0,0,100,0.00,40.00,0,-999,0,0.01
2014-4-5,45.0,33.3,20.0,-99.9,-99.9,-99.9,0,0,100,0.00,40.00,0,-999,0,0.01
2014-4-6,52.0,43.6,27.0,-99.9,-99.9,-99.9,0,0,100,0.00,40.00,0,-999,0,0.01
2014-4-7,58.0,42.6,32.0,-99.9,-99.9,-99.9,0,0,100,0.00,40.00,0,-999,0,0.00
2014-4-8,58.0,49.4,36.0,-99.9,-99.9,-99.9,0,0,100,0.00,40.00,0,-999,0,0.00
2014-4-9,55.0,47.2,42.0,-99.9,-99.9,-99.9,0,0,100,0.00,40.00,0,-999,0,0.00
2014-4-10,60.0,47.8,40.0,-99.9,-99.9,-99.9,0,0,100,0.00,40.00,0,-999,0,0.00
2014-4-11,58.0,45.4,37.0,-99.9,-99.9,-99.9,0,0,100,0.00,40.00,0,-999,0,0.01
2014-4-12,55.0,45.9,37.0,-99.9,-99.9,-99.9,0,0,100,0.00,40.00,0,-999,0,0.00
2014-4-13,40.0,40.0,40.0,-99.9,-99.9,-99.9,0,0,100,0.00,40.00,0,-999,0,0.00
2014-4-17,54.0,45.8,36.0,-99.9,-99.9,-99.9,0,0,100,0.00,40.00,0,-999,0,0.00
2014-4-18,57.0,45.0,38.0,-99.9,-99.9,-99.9,0,0,100,0.00,40.00,0,-999,0,0.00
2014-4-19,53.0,44.5,35.0,-99.9,-99.9,-99.9,0,0,100,0.00,40.00,0,-999,0,0.00
2014-4-20,58.0,44.7,32.0,-99.9,-99.9,-99.9,0,0,100,0.00,40.00,0,-999,0,0.01
2014-4-21,52.0,43.2,36.0,-99.9,-99.9,-99.9,0,0,100,0.00,40.00,0,-999,0,0.01
2014-4-22,37.0,30.6,27.0,-99.9,-99.9,-99.9,0,0,100,0.00,40.00,0,-999,0,0.02
2014-4-23,47.0,34.1,21.0,-99.9,-99.9,-99.9,0,0,100,0.00,40.00,0,-999,0,0.01
2014-4-24,48.0,40.3,31.0,-99.9,-99.9,-99.9,0,0,100,0.00,40.00,0,-999,0,0.01
2014-4-25,32.0,29.3,22.0,-99.9,-99.9,-99.9,0,0,100,0.00,40.00,0,-999,0,0.06
2014-4-26,34.0,28.2,22.0,-99.9,-99.9,-99.9,0,0,100,0.00,40.00,0,-999,0,0.02
2014-4-27,42.0,33.3,26.0,-99.9,-99.9,-99.9,0,0,100,0.00,40.00,0,-999,0,0.01
2014-4-28,52.0,37.1,23.0,-99.9,-99.9,-99.9,0,0,100,0.00,40.00,0,-999,0,0.01
2014-4-29,56.0,42.8,31.0,-99.9,-99.9,-99.9,0,0,100,0.00,40.00,0,-999,0,0.01
2014-4-30,59.0,44.2,34.0,-99.9,-99.9,-99.9,0,0,100,0.00,40.00,0,-999,0,0.00
2014-5-1,63.0,49.6,36.0,-99.9,-99.9,-99.9,0,0,100,0.00,40.00,0,-999,0,0.01
2014-5-2,62.0,51.9,40.0,-99.9,-99.9,-99.9,0,0,100,0.00,40.00,0,-999,0,0.00
2014-5-3,55.0,48.7,44.0,-99.9,-99.9,-99.9,0,0,100,0.00,40.00,0,-999,0,0.01
2014-5-4,50.0,45.8,42.0,-99.9,-99.9,-99.9,0,0,100,0.00,40.00,0,-999,0,0.01
2014-5-5,43.0,39.4,32.0,-99.9,-99.9,-99.9,0,0,100,0.00,40.00,0,-999,0,0.01
2014-5-6,40.0,33.7,23.0,-99.9,-99.9,-99.9,0,0,100,0.00,40.00,0,-999,0,0.01
2014-5-13,63.0,50.2,43.0,-99.9,-99.9,-99.9,0,0,100,0.00,40.00,0,-999,0,0.00
2014-5-14,66.0,50.6,39.0,-99.9,-99.9,-99.9,0,0,100,0.00,40.00,0,-999,0,0.00
2014-5-15,65.0,54.4,42.0,-99.9,-99.9,-99.9,0,0,100,0.00,40.00,0,-999,0,0.00
2014-5-16,64.0,56.0,50.0,-99.9,-99.9,-99.9,0,0,100,0.00,40.00,0,-999,0,0.01
2014-5-17,59.0,53.5,47.0,-99.9,-99.9,-99.9,0,0,100,0.00,40.00,0,-999,0,0.01
2014-5-18,51.0,45.0,38.0,-99.9,-99.9,-99.9,0,0,100,0.00,40.00,0,-999,0,0.01
2014-5-19,51.0,41.6,34.0,-99.9,-99.9,-99.9,0,0,100,0.00,40.00,0,-999,0,0.02
2014-5-20,39.0,34.6,31.0,-99.9,-99.9,-99.9,0,0,100,0.00,40.00,0,-999,0,0.04
2014-5-21,45.0,39.5,35.0,-99.9,-99.9,-99.9,0,0,100,0.00,40.00,0,-999,0,0.01
2014-5-22,53.0,43.3,35.0,-99.9,-99.9,-99.9,0,0,100,0.00,40.00,0,-999,0,0.01
2014-5-23,64.0,51.8,36.0,-99.9,-99.9,-99.9,0,0,100,0.00,40.00,0,-999,0,0.00
2014-5-24,64.0,52.9,41.0,-99.9,-99.9,-99.9,0,0,100,0.00,40.00,0,-999,0,0.00
2014-5-25,67.0,55.2,42.0,-99.9,-99.9,-99.9,0,0,100,0.00,40.00,0,-999,0,0.00
2014-5-26,66.0,57.2,46.0,-99.9,-99.9,-99.9,0,0,100,0.00,40.00,0,-999,0,0.01
2014-5-27,63.0,55.0,49.0,-99.9,-99.9,-99.9,0,0,100,0.00,40.00,0,-999,0,0.01
2014-5-28,58.0,49.5,36.0,-99.9,-99.9,-99.9,0,0,100,0.00,40.00,0,-999,0,0.01
2014-5-29,61.0,46.3,31.0,-99.9,-99.9,-99.9,0,0,100,0.00,40.00,0,-999,0,0.01
2014-5-30,58.0,49.3,37.0,-99.9,-99.9,-99.9,0,0,100,0.00,40.00,0,-999,0,0.01
2014-5-31,60.0,50.5,38.0,-99.9,-99.9,-99.9,0,0,100,0.00,40.00,0,-999,0,0.01
2014-6-1,65.0,51.7,38.0,-99.9,-99.9,-99.9,0,0,100,0.00,40.00,0,-999,0,0.01
2014-6-2,63.0,53.0,44.0,-99.9,-99.9,-99.9,0,0,100,0.00,40.00,0,-999,0,0.01
2014-6-3,64.0,52.2,38.0,-99.9,-99.9,-99.9,0,0,100,0.00,40.00,0,-999,0,0.01
2014-6-4,68.0,53.9,40.0,-99.9,-99.9,-99.9,0,0,100,0.00,40.00,0,-999,0,0.00
2014-6-5,69.0,57.8,47.0,-99.9,-99.9,-99.9,0,0,100,0.00,40.00,0,-999,0,0.01
2014-6-6,67.0,55.0,45.0,-99.9,-99.9,-99.9,0,0,100,0.00,40.00,0,-999,0,0.01
2014-6-7,70.0,57.7,45.0,-99.9,-99.9,-99.9,0,0,100,0.00,40.00,0,-999,0,0.00
2014-6-8,72.0,57.8,45.0,-99.9,-99.9,-99.9,0,0,100,0.00,40.00,0,-999,0,0.01
2014-6-9,72.0,60.4,47.0,-99.9,-99.9,-99.9,0,0,100,0.00,40.00,0,-999,0,0.01
2014-6-10,72.0,62.7,52.0,-99.9,-99.9,-99.9,0,0,100,0.00,40.00,0,-999,0,0.01
2014-6-11,70.0,57.8,46.0,-99.9,-99.9,-99.9,0,0,100,0.00,40.00,0,-999,0,0.01
2014-6-12,62.0,56.2,49.0,-99.9,-99.9,-99.9,0,0,100,0.00,40.00,0,-999,0,0.01
2014-6-13,58.0,50.0,38.0,-99.9,-99.9,-99.9,0,0,100,0.00,40.00,0,-999,0,0.01
2014-6-14,59.0,47.9,34.0,-99.9,-99.9,-99.9,0,0,100,0.00,40.00,0,-999,0,0.01
2014-6-15,59.0,50.2,45.0,-99.9,-99.9,-99.9,0,0,100,0.00,40.00,0,-999,0,0.00
2014-6-16,54.0,46.9,41.0,-99.9,-99.9,-99.9,0,0,100,0.00,40.00,0,-999,0,0.01
2014-6-17,54.0,44.8,36.0,-99.9,-99.9,-99.9,0,0,100,0.00,40.00,0,-999,0,0.01
2014-6-18,63.0,47.6,31.0,-99.9,-99.9,-99.9,0,0,100,0.00,40.00,0,-999,0,0.01
2014-6-19,66.0,54.3,39.0,-99.9,-99.9,-99.9,0,0,100,0.00,40.00,0,-999,0,0.01
2014-6-20,68.0,59.0,53.0,-99.9,-99.9,-99.9,0,0,100,0.00,40.00,0,-999,0,0.00
2014-6-21,67.0,58.2,51.0,-99.9,-99.9,-99.9,0,0,100,0.00,40.00,0,-999,0,0.00
2014-6-22,68.0,58.2,51.0,-99.9,-99.9,-99.9,0,0,100,0.00,40.00,0,-999,0,0.01
2014-6-23,69.0,56.9,45.0,-99.9,-99.9,-99.9,0,0,100,0.00,40.00,0,-999,0,0.01
2014-6-24,67.0,56.8,49.0,-99.9,-99.9,-99.9,0,0,100,0.00,40.00,0,-999,0,0.00
2014-6-25,64.0,54.6,46.0,-99.9,-99.9,-99.9,0,0,100,0.00,40.00,0,-999,0,0.01
2014-6-26,48.0,45.8,44.0,-99.9,-99.9,-99.9,0,0,100,0.00,40.00,0,-999,0,0.02
2014-6-27,62.0,56.7,46.0,-99.9,-99.9,-99.9,0,0,100,0.00,40.00,0,-999,0,0.00
2014-6-28,70.0,59.8,50.0,-99.9,-99.9,-99.9,0,0,100,0.00,40.00,0,-999,0,0.00
2014-6-29,75.0,64.9,55.0,-99.9,-99.9,-99.9,0,0,100,0.00,40.00,0,-999,0,0.00
2014-6-30,81.0,64.9,51.0,-99.9,-99.9,-99.9,0,0,100,0.00,40.00,0,-999,0,0.00
2014-7-1,77.0,64.8,53.0,-99.9,-99.9,-99.9,0,0,100,0.00,40.00,0,-999,0,0.01
2014-7-2,75.0,64.2,55.0,-99.9,-99.9,-99.9,0,0,100,0.00,40.00,0,-999,0,0.01
2014-7-3,74.0,62.8,52.0,-99.9,-99.9,-99.9,0,0,100,0.00,40.00,0,-999,0,0.01
2014-7-4,72.0,62.4,52.0,-99.9,-99.9,-99.9,0,0,100,0.00,40.00,0,-999,0,0.01
2014-7-5,74.0,63.7,54.0,-99.9,-99.9,-99.9,0,0,100,0.00,40.00,0,-999,0,0.01
2014-7-6,77.0,64.4,52.0,-99.9,-99.9,-99.9,0,0,100,0.00,40.00,0,-999,0,0.01
2014-7-7,74.0,64.5,54.0,-99.9,-99.9,-99.9,0,0,100,0.00,40.00,0,-999,0,0.01
2014-7-8,73.0,62.7,56.0,-99.9,-99.9,-99.9,0,0,100,0.00,40.00,0,-999,0,0.01
2014-7-9,72.0,60.0,53.0,-99.9,-99.9,-99.9,0,0,100,0.00,40.00,0,-999,0,0.01
2014-7-10,69.0,59.8,51.0,-99.9,0.0,200.0,0,0,100,0.00,40.00,0,0,0,0.02
2014-7-11,66.0,58.6,50.0,-99.9,0.0,200.0,0,0,100,0.00,40.00,0,0,0,0.01
2014-7-12,74.0,63.2,49.0,-99.9,0.0,200.0,0,0,100,0.00,40.00,0,0,0,0.01
2014-7-13,81.0,67.2,54.0,-99.9,0.0,200.0,0,0,100,0.00,40.00,0,0,0,0.00
2014-7-14,80.0,66.2,56.0,-99.9,0.0,200.0,0,0,100,0.00,40.00,0,0,0,0.02
2014-7-15,75.0,62.2,56.0,-99.9,0.0,200.0,0,0,100,0.00,40.00,0,0,0,0.02